Time,TemperatureF,DewpointF,PressureIn,WindDirection,WindDirectionDegrees,WindSpeedMPH,WindSpeedGustMPH,Humidity,HourlyPrecipIn,Conditions,Clouds,dailyrainin,SoftwareType,DateUTC
2013-02-04 00:00:00,47.0,42.7,30.10,West,276,1.0,3.0,85,0.00,,CLR,0.01,VWS V14.01,2013-02-04 08:00:00,
2013-02-04 00:01:00,47.0,42.7,30.10,West,276,2.0,3.0,85,0.00,,CLR,0.01,VWS V14.01,2013-02-04 08:01:00,
2013-02-04 00:06:00,47.0,42.7,30.10,West,276,0.0,2.0,85,0.00,,CLR,0.00,VWS V14.01,2013-02-04 08:06:00,
2013-02-04 00:11:00,47.0,42.4,30.10,West,276,1.0,3.0,84,0.00,,CLR,0.00,VWS V14.01,2013-02-04 08:11:00,
2013-02-04 00:15:00,47.1,42.2,30.10,West,276,3.0,3.0,83,0.00,,CLR,0.00,VWS V14.01,2013-02-04 08:15:00,
2013-02-04 00:16:00,47.1,42.2,30.10,West,276,3.0,3.0,83,0.00,,CLR,0.00,VWS V14.01,2013-02-04 08:16:00,
2013-02-04 00:21:00,47.3,42.1,30.10,West,276,1.0,4.0,82,0.00,,CLR,0.00,VWS V14.01,2013-02-04 08:21:00,
2013-02-04 00:26:00,47.6,42.1,30.10,West,276,1.0,4.0,81,0.00,,CLR,0.00,VWS V14.01,2013-02-04 08:26:00,
2013-02-04 00:30:00,47.4,42.5,30.09,NNE,31,4.0,4.0,83,0.00,,CLR,0.00,VWS V14.01,2013-02-04 08:30:00,
2013-02-04 00:31:00,47.6,42.1,30.09,West,276,3.0,4.0,81,0.00,,CLR,0.00,VWS V14.01,2013-02-04 08:31:00,
2013-02-04 00:36:00,47.1,42.5,30.09,NNE,31,1.0,4.0,84,0.00,,CLR,0.00,VWS V14.01,2013-02-04 08:36:00,
2013-02-04 00:41:00,46.7,42.7,30.09,NNE,31,2.0,4.0,86,0.00,,CLR,0.00,VWS V14.01,2013-02-04 08:41:00,
2013-02-04 00:45:00,46.5,42.8,30.09,NNE,31,3.0,4.0,87,0.00,,CLR,0.00,VWS V14.01,2013-02-04 08:45:00,
2013-02-04 00:46:00,46.5,42.8,30.09,NNE,31,2.0,4.0,87,0.00,,CLR,0.00,VWS V14.01,2013-02-04 08:46:00,
2013-02-04 00:51:00,46.5,42.2,30.09,NNW,331,1.0,5.0,85,0.00,,CLR,0.00,VWS V14.01,2013-02-04 08:51:00,
2013-02-04 00:56:00,46.8,41.6,30.09,NNW,331,1.0,5.0,82,0.00,,CLR,0.00,VWS V14.01,2013-02-04 08:56:00,
2013-02-04 01:00:00,47.4,42.2,30.09,NNW,337,0.0,5.0,82,0.00,,CLR,0.00,VWS V14.01,2013-02-04 09:00:00,
2013-02-04 01:01:00,47.3,42.1,30.09,NNW,337,1.0,5.0,82,0.00,,CLR,0.00,VWS V14.01,2013-02-04 09:01:00,
2013-02-04 01:06:00,47.9,41.7,30.09,North,349,0.0,4.0,79,0.00,,CLR,0.00,VWS V14.01,2013-02-04 09:06:00,
2013-02-04 01:11:00,48.2,42.0,30.09,North,349,2.0,4.0,79,0.00,,CLR,0.00,VWS V14.01,2013-02-04 09:11:00,
2013-02-04 01:15:00,48.3,41.8,30.09,North,352,0.0,4.0,78,0.00,,CLR,0.00,VWS V14.01,2013-02-04 09:15:00,
2013-02-04 01:16:00,48.2,42.0,30.09,North,352,1.0,4.0,79,0.00,,CLR,0.00,VWS V14.01,2013-02-04 09:16:00,
2013-02-04 01:21:00,48.5,41.0,30.09,North,352,4.0,4.0,75,0.00,,CLR,0.00,VWS V14.01,2013-02-04 09:21:00,
2013-02-04 01:26:00,49.6,41.0,30.09,NNW,344,0.0,4.0,72,0.00,,CLR,0.00,VWS V14.01,2013-02-04 09:26:00,
2013-02-04 01:30:00,50.2,41.2,30.09,NNW,344,0.0,4.0,71,0.00,,CLR,0.00,VWS V14.01,2013-02-04 09:30:00,
2013-02-04 01:31:00,50.1,41.1,30.09,NNW,344,0.0,4.0,71,0.00,,CLR,0.00,VWS V14.01,2013-02-04 09:31:00,
2013-02-04 01:36:00,50.4,41.4,30.09,North,2,2.0,2.0,71,0.00,,CLR,0.00,VWS V14.01,2013-02-04 09:36:00,
2013-02-04 01:41:00,50.4,41.4,30.09,North,7,2.0,2.0,71,0.00,,CLR,0.00,VWS V14.01,2013-02-04 09:41:00,
2013-02-04 01:45:00,49.8,41.5,30.09,North,7,2.0,3.0,73,0.00,,CLR,0.00,VWS V14.01,2013-02-04 09:45:00,
2013-02-04 01:46:00,49.8,41.2,30.09,North,7,1.0,3.0,72,0.00,,CLR,0.00,VWS V14.01,2013-02-04 09:46:00,
2013-02-04 01:51:00,49.4,41.1,30.09,North,7,0.0,2.0,73,0.00,,CLR,0.00,VWS V14.01,2013-02-04 09:51:00,
2013-02-04 01:56:00,49.1,41.2,30.09,North,7,0.0,2.0,74,0.00,,CLR,0.00,VWS V14.01,2013-02-04 09:56:00,
2013-02-04 02:00:00,48.3,41.8,30.09,SW,222,3.0,3.0,78,0.00,,CLR,0.00,VWS V14.01,2013-02-04 10:00:00,
2013-02-04 02:01:00,48.5,41.6,30.09,SW,222,3.0,3.0,77,0.00,,CLR,0.00,VWS V14.01,2013-02-04 10:01:00,
2013-02-04 02:06:00,47.7,41.8,30.09,SW,224,2.0,4.0,80,0.00,,CLR,0.00,VWS V14.01,2013-02-04 10:06:00,
2013-02-04 02:11:00,47.3,42.1,30.09,SW,225,3.0,4.0,82,0.00,,CLR,0.00,VWS V14.01,2013-02-04 10:11:00,
2013-02-04 02:15:00,46.8,42.5,30.09,SW,224,4.0,5.0,85,0.00,,CLR,0.00,VWS V14.01,2013-02-04 10:15:00,
2013-02-04 02:16:00,46.8,42.5,30.09,SW,224,3.0,4.0,85,0.00,,CLR,0.00,VWS V14.01,2013-02-04 10:16:00,
2013-02-04 02:21:00,46.8,42.8,30.09,SW,220,3.0,4.0,86,0.00,,CLR,0.00,VWS V14.01,2013-02-04 10:21:00,
2013-02-04 02:26:00,46.7,42.1,30.09,SW,220,2.0,4.0,84,0.00,,CLR,0.00,VWS V14.01,2013-02-04 10:26:00,
2013-02-04 02:30:00,46.7,41.5,30.09,SW,220,3.0,4.0,82,0.00,,CLR,0.00,VWS V14.01,2013-02-04 10:30:00,
2013-02-04 02:31:00,46.7,41.8,30.09,SW,220,3.0,4.0,83,0.00,,CLR,0.00,VWS V14.01,2013-02-04 10:31:00,
2013-02-04 02:36:00,47.0,41.5,30.09,West,281,3.0,4.0,81,0.00,,CLR,0.00,VWS V14.01,2013-02-04 10:36:00,
2013-02-04 02:41:00,47.6,41.8,30.09,WNW,299,3.0,5.0,80,0.00,,CLR,0.00,VWS V14.01,2013-02-04 10:41:00,
2013-02-04 02:45:00,48.2,42.0,30.09,WNW,302,2.0,5.0,79,0.00,,CLR,0.00,VWS V14.01,2013-02-04 10:45:00,
2013-02-04 02:46:00,48.0,41.8,30.09,WNW,302,3.0,5.0,79,0.00,,CLR,0.00,VWS V14.01,2013-02-04 10:46:00,
2013-02-04 02:51:00,48.8,42.3,30.09,NW,320,2.0,4.0,78,0.00,,CLR,0.00,VWS V14.01,2013-02-04 10:51:00,
2013-02-04 02:56:00,49.4,42.2,30.09,NW,320,1.0,4.0,76,0.00,,CLR,0.00,VWS V14.01,2013-02-04 10:56:00,
2013-02-04 03:00:00,49.8,41.2,30.08,NNW,344,3.0,5.0,72,0.00,,CLR,0.00,VWS V14.01,2013-02-04 11:00:00,
2013-02-04 03:01:00,49.6,41.0,30.08,NNW,345,3.0,5.0,72,0.00,,CLR,0.00,VWS V14.01,2013-02-04 11:01:00,
2013-02-04 03:06:00,50.4,41.0,30.08,North,351,2.0,3.0,70,0.00,,CLR,0.00,VWS V14.01,2013-02-04 11:06:00,
2013-02-04 03:11:00,51.0,41.9,30.08,North,353,1.0,3.0,71,0.00,,CLR,0.00,VWS V14.01,2013-02-04 11:11:00,
2013-02-04 03:15:00,51.4,42.3,30.07,North,353,2.0,3.0,71,0.00,,CLR,0.00,VWS V14.01,2013-02-04 11:15:00,
2013-02-04 03:16:00,51.4,42.3,30.07,North,353,1.0,3.0,71,0.00,,CLR,0.00,VWS V14.01,2013-02-04 11:16:00,
2013-02-04 03:21:00,51.6,41.8,30.07,North,349,0.0,2.0,69,0.00,,CLR,0.00,VWS V14.01,2013-02-04 11:21:00,
2013-02-04 03:26:00,51.6,41.4,30.07,NW,313,3.0,4.0,68,0.00,,CLR,0.00,VWS V14.01,2013-02-04 11:26:00,
2013-02-04 03:30:00,51.4,40.8,30.07,NW,314,3.0,5.0,67,0.00,,CLR,0.00,VWS V14.01,2013-02-04 11:30:00,
2013-02-04 03:31:00,51.4,40.8,30.07,NW,314,3.0,5.0,67,0.00,,CLR,0.00,VWS V14.01,2013-02-04 11:31:00,
2013-02-04 03:36:00,51.4,40.8,30.07,NW,305,3.0,5.0,67,0.00,,CLR,0.00,VWS V14.01,2013-02-04 11:36:00,
2013-02-04 03:41:00,51.3,40.7,30.07,NW,313,4.0,5.0,67,0.00,,CLR,0.00,VWS V14.01,2013-02-04 11:41:00,
2013-02-04 03:45:00,51.1,40.2,30.07,WNW,296,2.0,5.0,66,0.00,,CLR,0.00,VWS V14.01,2013-02-04 11:45:00,
2013-02-04 03:46:00,51.1,40.2,30.07,WNW,296,1.0,5.0,66,0.00,,CLR,0.00,VWS V14.01,2013-02-04 11:46:00,
2013-02-04 03:51:00,51.0,40.4,30.07,WNW,296,0.0,3.0,67,0.00,,CLR,0.00,VWS V14.01,2013-02-04 11:51:00,
2013-02-04 03:56:00,50.7,40.2,30.07,WNW,297,0.0,3.0,67,0.00,,CLR,0.00,VWS V14.01,2013-02-04 11:56:00,
2013-02-04 04:00:00,50.4,40.6,30.07,WNW,297,2.0,3.0,69,0.00,,CLR,0.00,VWS V14.01,2013-02-04 12:00:00,
2013-02-04 04:01:00,50.4,40.2,30.07,WNW,296,3.0,3.0,68,0.00,,CLR,0.00,VWS V14.01,2013-02-04 12:01:00,
2013-02-04 04:06:00,50.4,41.0,30.07,WNW,297,0.0,4.0,70,0.00,,CLR,0.00,VWS V14.01,2013-02-04 12:06:00,
2013-02-04 04:11:00,49.9,41.2,30.07,WNW,297,0.0,4.0,72,0.00,,CLR,0.00,VWS V14.01,2013-02-04 12:11:00,
2013-02-04 04:15:00,49.2,41.3,30.07,WNW,297,1.0,4.0,74,0.00,,CLR,0.00,VWS V14.01,2013-02-04 12:15:00,
2013-02-04 04:16:00,49.4,41.5,30.07,WNW,297,0.0,4.0,74,0.00,,CLR,0.00,VWS V14.01,2013-02-04 12:16:00,
2013-02-04 04:21:00,48.3,41.1,30.07,ENE,67,3.0,3.0,76,0.00,,CLR,0.00,VWS V14.01,2013-02-04 12:21:00,
2013-02-04 04:26:00,47.4,41.2,30.07,ENE,67,0.0,3.0,79,0.00,,CLR,0.00,VWS V14.01,2013-02-04 12:26:00,
2013-02-04 04:30:00,47.3,41.5,30.07,ENE,67,0.0,3.0,80,0.00,,CLR,0.00,VWS V14.01,2013-02-04 12:30:00,
2013-02-04 04:31:00,47.3,41.5,30.07,ENE,67,0.0,3.0,80,0.00,,CLR,0.00,VWS V14.01,2013-02-04 12:31:00,
2013-02-04 04:36:00,47.4,41.5,30.07,ENE,67,0.0,0.0,80,0.00,,CLR,0.00,VWS V14.01,2013-02-04 12:36:00,
2013-02-04 04:41:00,47.6,41.4,30.07,ENE,67,0.0,0.0,79,0.00,,CLR,0.00,VWS V14.01,2013-02-04 12:41:00,
2013-02-04 04:45:00,47.7,41.5,30.07,ENE,67,0.0,1.0,79,0.00,,CLR,0.00,VWS V14.01,2013-02-04 12:45:00,
2013-02-04 04:46:00,47.7,41.5,30.07,ENE,67,0.0,1.0,79,0.00,,CLR,0.00,VWS V14.01,2013-02-04 12:46:00,
2013-02-04 04:51:00,47.6,41.4,30.07,ENE,67,0.0,0.0,79,0.00,,CLR,0.00,VWS V14.01,2013-02-04 12:51:00,
2013-02-04 04:56:00,47.4,41.2,30.07,ENE,67,0.0,0.0,79,0.00,,CLR,0.00,VWS V14.01,2013-02-04 12:56:00,
2013-02-04 05:00:00,46.8,41.3,30.07,ENE,67,2.0,2.0,81,0.00,,CLR,0.00,VWS V14.01,2013-02-04 13:00:00,
2013-02-04 05:01:00,47.0,41.5,30.07,ENE,67,1.0,2.0,81,0.00,,CLR,0.00,VWS V14.01,2013-02-04 13:01:00,
2013-02-04 05:06:00,46.2,41.0,30.07,ENE,67,2.0,2.0,82,0.00,,CLR,0.00,VWS V14.01,2013-02-04 13:06:00,
2013-02-04 05:11:00,45.7,41.2,30.07,ENE,67,0.0,2.0,84,0.00,,CLR,0.00,VWS V14.01,2013-02-04 13:11:00,
2013-02-04 05:15:00,45.1,41.2,30.07,ENE,67,2.0,2.0,86,0.00,,CLR,0.00,VWS V14.01,2013-02-04 13:15:00,
2013-02-04 05:16:00,45.2,41.3,30.07,ENE,67,1.0,2.0,86,0.00,,CLR,0.00,VWS V14.01,2013-02-04 13:16:00,
2013-02-04 05:21:00,44.9,41.3,30.07,ENE,67,3.0,3.0,87,0.00,,CLR,0.00,VWS V14.01,2013-02-04 13:21:00,
2013-02-04 05:26:00,44.6,41.3,30.07,ENE,67,4.0,4.0,88,0.00,,CLR,0.00,VWS V14.01,2013-02-04 13:26:00,
2013-02-04 05:30:00,44.5,41.8,30.06,ENE,67,2.0,4.0,90,0.00,,CLR,0.00,VWS V14.01,2013-02-04 13:30:00,
2013-02-04 05:31:00,44.5,41.8,30.07,ENE,67,2.0,4.0,90,0.00,,CLR,0.00,VWS V14.01,2013-02-04 13:31:00,
2013-02-04 05:36:00,44.2,41.7,30.07,ENE,67,0.0,3.0,91,0.00,,CLR,0.00,VWS V14.01,2013-02-04 13:36:00,
2013-02-04 05:41:00,44.1,41.9,30.07,ENE,67,3.0,3.0,92,0.00,,CLR,0.00,VWS V14.01,2013-02-04 13:41:00,
2013-02-04 05:45:00,44.1,41.9,30.07,ENE,67,0.0,3.0,92,0.00,,CLR,0.00,VWS V14.01,2013-02-04 13:45:00,
2013-02-04 05:46:00,44.1,41.9,30.07,ENE,67,0.0,3.0,92,0.00,,CLR,0.00,VWS V14.01,2013-02-04 13:46:00,
2013-02-04 05:51:00,44.1,41.9,30.07,ENE,67,0.0,0.0,92,0.00,,CLR,0.00,VWS V14.01,2013-02-04 13:51:00,
2013-02-04 05:56:00,43.9,42.0,30.07,ENE,67,0.0,0.0,93,0.00,,CLR,0.00,VWS V14.01,2013-02-04 13:56:00,
2013-02-04 06:00:00,44.1,42.2,30.07,ENE,67,0.0,0.0,93,0.00,,CLR,0.00,VWS V14.01,2013-02-04 14:00:00,
2013-02-04 06:01:00,44.1,42.2,30.07,ENE,67,0.0,0.0,93,0.00,,CLR,0.00,VWS V14.01,2013-02-04 14:01:00,
2013-02-04 06:06:00,44.1,42.2,30.07,ENE,67,0.0,0.0,93,0.00,,CLR,0.00,VWS V14.01,2013-02-04 14:06:00,
2013-02-04 06:11:00,44.1,42.2,30.07,ENE,67,0.0,0.0,93,0.00,,CLR,0.00,VWS V14.01,2013-02-04 14:11:00,
2013-02-04 06:15:00,44.1,42.2,30.07,ENE,67,0.0,0.0,93,0.00,,CLR,0.00,VWS V14.01,2013-02-04 14:15:00,
2013-02-04 06:16:00,44.1,42.2,30.08,ENE,67,0.0,0.0,93,0.00,,CLR,0.00,VWS V14.01,2013-02-04 14:16:00,
2013-02-04 06:21:00,44.1,42.2,30.08,ENE,67,0.0,1.0,93,0.00,,CLR,0.00,VWS V14.01,2013-02-04 14:21:00,
2013-02-04 06:26:00,44.1,41.9,30.08,ENE,67,0.0,1.0,92,0.00,,CLR,0.00,VWS V14.01,2013-02-04 14:26:00,
2013-02-04 06:30:00,44.2,42.3,30.08,ENE,67,1.0,1.0,93,0.00,,CLR,0.00,VWS V14.01,2013-02-04 14:30:00,
2013-02-04 06:31:00,44.2,42.0,30.08,ENE,67,1.0,1.0,92,0.00,,CLR,0.00,VWS V14.01,2013-02-04 14:31:00,
2013-02-04 06:36:00,44.2,42.3,30.08,ENE,67,1.0,1.0,93,0.00,,CLR,0.00,VWS V14.01,2013-02-04 14:36:00,
2013-02-04 06:41:00,44.1,42.5,30.08,ENE,67,1.0,2.0,94,0.00,,CLR,0.00,VWS V14.01,2013-02-04 14:41:00,
2013-02-04 06:45:00,44.2,42.6,30.08,ENE,67,0.0,2.0,94,0.00,,CLR,0.00,VWS V14.01,2013-02-04 14:45:00,
2013-02-04 06:46:00,44.2,42.6,30.08,ENE,67,0.0,2.0,94,0.00,,CLR,0.00,VWS V14.01,2013-02-04 14:46:00,
2013-02-04 06:51:00,44.2,42.6,30.08,ENE,67,0.0,0.0,94,0.00,,CLR,0.00,VWS V14.01,2013-02-04 14:51:00,
2013-02-04 06:56:00,44.2,42.3,30.08,ENE,67,0.0,0.0,93,0.00,,CLR,0.00,VWS V14.01,2013-02-04 14:56:00,
2013-02-04 07:00:00,43.9,42.0,30.09,ENE,67,0.0,0.0,93,0.00,,CLR,0.00,VWS V14.01,2013-02-04 15:00:00,
2013-02-04 07:01:00,43.9,42.0,30.09,ENE,67,0.0,0.0,93,0.00,,FEW002,0.00,VWS V14.01,2013-02-04 15:01:00,
2013-02-04 07:06:00,43.6,42.0,30.09,ENE,67,0.0,0.0,94,0.00,,FEW002,0.00,VWS V14.01,2013-02-04 15:06:00,
2013-02-04 07:11:00,43.5,41.9,30.09,ENE,67,0.0,0.0,94,0.00,,FEW002,0.00,VWS V14.01,2013-02-04 15:11:00,
2013-02-04 07:15:00,43.5,41.9,30.10,ENE,67,0.0,0.0,94,0.00,,CLR,0.00,VWS V14.01,2013-02-04 15:15:00,
2013-02-04 07:16:00,43.5,41.9,30.10,ENE,67,0.0,0.0,94,0.00,,FEW002,0.00,VWS V14.01,2013-02-04 15:16:00,
2013-02-04 07:21:00,43.9,42.6,30.10,ENE,67,0.0,0.0,95,0.00,,FEW002,0.00,VWS V14.01,2013-02-04 15:21:00,
2013-02-04 07:26:00,44.1,42.8,30.10,ENE,67,0.0,0.0,95,0.00,,FEW002,0.00,VWS V14.01,2013-02-04 15:26:00,
2013-02-04 07:30:00,44.2,42.9,30.10,ENE,67,0.0,0.0,95,0.00,,CLR,0.00,VWS V14.01,2013-02-04 15:30:00,
2013-02-04 07:31:00,44.2,42.9,30.10,ENE,67,0.0,0.0,95,0.00,,FEW002,0.00,VWS V14.01,2013-02-04 15:31:00,
2013-02-04 07:36:00,44.3,43.0,30.10,ENE,67,0.0,0.0,95,0.00,,FEW002,0.00,VWS V14.01,2013-02-04 15:36:00,
2013-02-04 07:41:00,44.5,43.2,30.10,ENE,67,0.0,0.0,95,0.00,,FEW002,0.00,VWS V14.01,2013-02-04 15:41:00,
2013-02-04 07:45:00,44.6,43.3,30.10,ENE,67,0.0,0.0,95,0.00,,CLR,0.00,VWS V14.01,2013-02-04 15:45:00,
2013-02-04 07:46:00,44.6,43.3,30.10,ENE,67,0.0,0.0,95,0.00,,BKN005,0.00,VWS V14.01,2013-02-04 15:46:00,
2013-02-04 07:51:00,44.9,43.6,30.10,ENE,67,0.0,0.0,95,0.00,,BKN005,0.00,VWS V14.01,2013-02-04 15:51:00,
2013-02-04 07:56:00,45.2,43.9,30.10,ENE,67,0.0,0.0,95,0.00,,BKN005,0.00,VWS V14.01,2013-02-04 15:56:00,
2013-02-04 08:00:00,45.5,43.9,30.10,ENE,67,0.0,0.0,94,0.00,,CLR,0.00,VWS V14.01,2013-02-04 16:00:00,
2013-02-04 08:01:00,45.5,43.9,30.10,ENE,67,0.0,0.0,94,0.00,,,0.00,VWS V14.01,2013-02-04 16:01:00,
2013-02-04 08:06:00,45.7,44.1,30.10,ENE,67,0.0,0.0,94,0.00,,,0.00,VWS V14.01,2013-02-04 16:06:00,
2013-02-04 08:11:00,46.0,44.4,30.10,ENE,67,0.0,0.0,94,0.00,,,0.00,VWS V14.01,2013-02-04 16:11:00,
2013-02-04 08:15:00,46.4,44.5,30.10,ENE,67,0.0,0.0,93,0.00,,CLR,0.00,VWS V14.01,2013-02-04 16:15:00,
2013-02-04 08:17:00,46.4,44.5,30.10,ENE,67,0.0,0.0,93,0.00,,,0.00,VWS V14.01,2013-02-04 16:17:00,
2013-02-04 08:22:00,46.5,44.6,30.10,ENE,67,0.0,0.0,93,0.00,,,0.00,VWS V14.01,2013-02-04 16:22:00,
2013-02-04 08:26:00,46.8,44.6,30.10,ENE,67,0.0,0.0,92,0.00,,,0.00,VWS V14.01,2013-02-04 16:26:00,
2013-02-04 08:30:00,47.4,45.2,30.10,ENE,67,0.0,1.0,92,0.00,,CLR,0.00,VWS V14.01,2013-02-04 16:30:00,
2013-02-04 08:31:00,47.3,45.1,30.10,ENE,67,0.0,1.0,92,0.00,,,0.00,VWS V14.01,2013-02-04 16:31:00,
2013-02-04 08:36:00,47.6,45.1,30.10,ENE,67,0.0,0.0,91,0.00,,,0.00,VWS V14.01,2013-02-04 16:36:00,
2013-02-04 08:41:00,47.6,45.1,30.10,ENE,67,0.0,0.0,91,0.00,,,0.00,VWS V14.01,2013-02-04 16:41:00,
2013-02-04 08:45:00,47.9,45.4,30.10,ENE,67,1.0,2.0,91,0.00,,CLR,0.00,VWS V14.01,2013-02-04 16:45:00,
2013-02-04 08:46:00,47.9,45.4,30.10,ENE,67,2.0,2.0,91,0.00,,,0.00,VWS V14.01,2013-02-04 16:46:00,
2013-02-04 08:51:00,48.2,45.7,30.10,ENE,67,0.0,2.0,91,0.00,,,0.00,VWS V14.01,2013-02-04 16:51:00,
2013-02-04 08:56:00,48.8,46.0,30.10,ENE,67,0.0,2.0,90,0.00,,,0.00,VWS V14.01,2013-02-04 16:56:00,
2013-02-04 09:00:00,49.4,46.3,30.10,ENE,67,0.0,2.0,89,0.00,,CLR,0.00,VWS V14.01,2013-02-04 17:00:00,
2013-02-04 09:01:00,49.4,46.3,30.10,ENE,67,1.0,2.0,89,0.00,,,0.00,VWS V14.01,2013-02-04 17:01:00,
2013-02-04 09:06:00,49.8,46.1,30.10,ENE,67,1.0,1.0,87,0.00,,,0.00,VWS V14.01,2013-02-04 17:06:00,
2013-02-04 09:12:00,50.1,45.8,30.10,ENE,67,0.0,2.0,85,0.00,,,0.00,VWS V14.01,2013-02-04 17:12:00,
2013-02-04 09:15:00,50.4,46.1,30.11,ENE,67,1.0,2.0,85,0.00,,CLR,0.00,VWS V14.01,2013-02-04 17:15:00,
2013-02-04 09:17:00,50.4,46.1,30.11,ENE,67,2.0,2.0,85,0.00,,,0.00,VWS V14.01,2013-02-04 17:17:00,
2013-02-04 09:21:00,50.5,45.8,30.11,ENE,67,0.0,2.0,84,0.00,,,0.00,VWS V14.01,2013-02-04 17:21:00,
2013-02-04 09:26:00,50.7,46.0,30.11,ENE,67,0.0,2.0,84,0.00,,,0.00,VWS V14.01,2013-02-04 17:26:00,
2013-02-04 09:30:00,51.1,46.1,30.11,ENE,67,0.0,2.0,83,0.00,,CLR,0.00,VWS V14.01,2013-02-04 17:30:00,
2013-02-04 09:32:00,51.1,46.1,30.11,ENE,67,0.0,2.0,83,0.00,,,0.00,VWS V14.01,2013-02-04 17:32:00,
2013-02-04 09:36:00,51.4,46.4,30.11,ENE,67,2.0,2.0,83,0.00,,,0.00,VWS V14.01,2013-02-04 17:36:00,
2013-02-04 09:41:00,51.4,45.5,30.11,ENE,67,1.0,3.0,80,0.00,,,0.00,VWS V14.01,2013-02-04 17:41:00,
2013-02-04 09:45:00,51.4,45.1,30.11,NE,52,1.0,3.0,79,0.00,,CLR,0.00,VWS V14.01,2013-02-04 17:45:00,
2013-02-04 09:46:00,51.4,45.5,30.11,NE,52,1.0,3.0,80,0.00,,,0.00,VWS V14.01,2013-02-04 17:46:00,
2013-02-04 09:51:00,52.3,46.0,30.11,NE,52,2.0,2.0,79,0.00,,,0.00,VWS V14.01,2013-02-04 17:51:00,
2013-02-04 09:56:00,53.6,46.2,30.11,NE,37,0.0,3.0,76,0.00,,,0.00,VWS V14.01,2013-02-04 17:56:00,
2013-02-04 10:00:00,54.8,47.7,30.10,NE,38,3.0,3.0,77,0.00,,CLR,0.00,VWS V14.01,2013-02-04 18:00:00,
2013-02-04 10:02:00,54.7,46.9,30.10,NE,37,0.0,3.0,75,0.00,,,0.00,VWS V14.01,2013-02-04 18:02:00,
2013-02-04 10:07:00,55.1,47.3,30.10,NE,38,0.0,3.0,75,0.00,,,0.00,VWS V14.01,2013-02-04 18:07:00,
2013-02-04 10:12:00,56.3,47.4,30.10,NE,38,1.0,3.0,72,0.00,,,0.00,VWS V14.01,2013-02-04 18:12:00,
2013-02-04 10:15:00,56.2,48.0,30.10,NE,38,0.0,3.0,74,0.00,,CLR,0.00,VWS V14.01,2013-02-04 18:15:00,
2013-02-04 10:17:00,56.2,47.7,30.10,NE,38,0.0,3.0,73,0.00,,,0.00,VWS V14.01,2013-02-04 18:17:00,
2013-02-04 10:22:00,57.2,49.0,30.10,NE,38,0.0,2.0,74,0.00,,,0.00,VWS V14.01,2013-02-04 18:22:00,
2013-02-04 10:27:00,57.6,48.3,30.10,NE,38,2.0,3.0,71,0.00,,,0.00,VWS V14.01,2013-02-04 18:27:00,
2013-02-04 10:30:00,57.6,48.3,30.09,NE,38,0.0,3.0,71,0.00,,CLR,0.00,VWS V14.01,2013-02-04 18:30:00,
2013-02-04 10:32:00,57.6,48.7,30.09,NE,38,0.0,3.0,72,0.00,,,0.00,VWS V14.01,2013-02-04 18:32:00,
2013-02-04 10:37:00,58.7,48.6,30.09,NE,38,2.0,2.0,69,0.00,,,0.00,VWS V14.01,2013-02-04 18:37:00,
2013-02-04 10:42:00,58.1,49.5,30.09,WSW,252,2.0,3.0,73,0.00,,,0.00,VWS V14.01,2013-02-04 18:42:00,
2013-02-04 10:45:00,58.1,49.1,30.08,WSW,255,0.0,3.0,72,0.00,,CLR,0.00,VWS V14.01,2013-02-04 18:45:00,
2013-02-04 10:47:00,58.1,49.1,30.08,WSW,255,0.0,3.0,72,0.00,,,0.00,VWS V14.01,2013-02-04 18:47:00,
2013-02-04 10:52:00,57.5,49.7,30.08,WSW,255,0.0,3.0,75,0.00,,,0.00,VWS V14.01,2013-02-04 18:52:00,
2013-02-04 10:57:00,57.8,49.6,30.08,WSW,247,2.0,3.0,74,0.00,,,0.00,VWS V14.01,2013-02-04 18:57:00,
2013-02-04 11:00:00,59.2,51.3,30.08,WSW,241,2.0,3.0,75,0.00,,CLR,0.00,VWS V14.01,2013-02-04 19:00:00,
2013-02-04 11:02:00,59.0,50.7,30.08,WSW,241,1.0,3.0,74,0.00,,,0.00,VWS V14.01,2013-02-04 19:02:00,
2013-02-04 11:07:00,59.8,50.8,30.08,WSW,241,2.0,2.0,72,0.00,,,0.00,VWS V14.01,2013-02-04 19:07:00,
2013-02-04 11:12:00,59.9,50.1,30.08,WSW,241,0.0,2.0,70,0.00,,,0.00,VWS V14.01,2013-02-04 19:12:00,
2013-02-04 11:15:00,59.5,51.2,30.08,West,260,2.0,3.0,74,0.00,,CLR,0.00,VWS V14.01,2013-02-04 19:15:00,
2013-02-04 11:17:00,59.5,51.2,30.08,WSW,238,1.0,3.0,74,0.00,,,0.00,VWS V14.01,2013-02-04 19:17:00,
2013-02-04 11:22:00,59.8,51.1,30.08,West,260,3.0,3.0,73,0.00,,,0.00,VWS V14.01,2013-02-04 19:22:00,
2013-02-04 11:27:00,60.2,50.0,30.08,WSW,237,1.0,3.0,69,0.00,,,0.00,VWS V14.01,2013-02-04 19:27:00,
2013-02-04 11:30:00,60.5,50.3,30.07,WSW,237,0.0,3.0,69,0.00,,CLR,0.00,VWS V14.01,2013-02-04 19:30:00,
2013-02-04 11:32:00,60.5,50.3,30.08,WSW,237,1.0,3.0,69,0.00,,,0.00,VWS V14.01,2013-02-04 19:32:00,
2013-02-04 11:37:00,61.2,51.0,30.08,SSW,195,0.0,2.0,69,0.00,,,0.00,VWS V14.01,2013-02-04 19:37:00,
2013-02-04 11:42:00,62.0,50.9,30.08,SE,146,0.0,2.0,67,0.00,,,0.00,VWS V14.01,2013-02-04 19:42:00,
2013-02-04 11:45:00,62.1,51.0,30.06,SW,220,1.0,2.0,67,0.00,,CLR,0.00,VWS V14.01,2013-02-04 19:45:00,
2013-02-04 11:47:00,62.1,51.0,30.06,SW,220,1.0,2.0,67,0.00,,SCT004,0.00,VWS V14.01,2013-02-04 19:47:00,
2013-02-04 11:52:00,62.1,51.0,30.06,SW,220,1.0,1.0,67,0.00,,SCT004,0.00,VWS V14.01,2013-02-04 19:52:00,
2013-02-04 11:57:00,62.9,52.6,30.06,NW,322,0.0,4.0,69,0.00,,SCT004,0.00,VWS V14.01,2013-02-04 19:57:00,
2013-02-04 12:00:00,62.7,52.8,30.06,West,280,0.0,4.0,70,0.00,,CLR,0.00,VWS V14.01,2013-02-04 20:00:00,
2013-02-04 12:02:00,62.7,51.6,30.05,West,280,0.0,4.0,67,0.00,,SCT004,0.00,VWS V14.01,2013-02-04 20:02:00,
2013-02-04 12:07:00,63.1,50.7,30.05,SE,141,1.0,2.0,64,0.00,,SCT004,0.00,VWS V14.01,2013-02-04 20:07:00,
2013-02-04 12:12:00,63.9,51.9,30.05,SSE,150,1.0,2.0,65,0.00,,SCT004,0.00,VWS V14.01,2013-02-04 20:12:00,
2013-02-04 12:15:00,64.0,50.7,30.05,SSE,152,1.0,2.0,62,0.00,,CLR,0.00,VWS V14.01,2013-02-04 20:15:00,
2013-02-04 12:17:00,64.0,51.6,30.05,SSE,152,0.0,2.0,64,0.00,,SCT004,0.00,VWS V14.01,2013-02-04 20:17:00,
2013-02-04 12:22:00,64.2,52.2,30.05,South,177,0.0,4.0,65,0.00,,SCT004,0.00,VWS V14.01,2013-02-04 20:22:00,
2013-02-04 12:27:00,64.0,50.7,30.05,SE,143,2.0,4.0,62,0.00,,SCT004,0.00,VWS V14.01,2013-02-04 20:27:00,
2013-02-04 12:30:00,64.7,52.7,30.04,SSW,204,1.0,4.0,65,0.00,,CLR,0.00,VWS V14.01,2013-02-04 20:30:00,
2013-02-04 12:32:00,64.7,52.7,30.04,SSW,204,0.0,4.0,65,0.00,,SCT004,0.00,VWS V14.01,2013-02-04 20:32:00,
2013-02-04 12:37:00,64.3,50.1,30.04,South,177,0.0,4.0,60,0.00,,SCT004,0.00,VWS V14.01,2013-02-04 20:37:00,
2013-02-04 12:42:00,65.0,51.2,30.04,SSW,199,0.0,4.0,61,0.00,,SCT004,0.00,VWS V14.01,2013-02-04 20:42:00,
2013-02-04 12:45:00,64.7,50.1,30.04,SSE,163,1.0,4.0,59,0.00,,CLR,0.00,VWS V14.01,2013-02-04 20:45:00,
2013-02-04 12:47:00,64.7,50.5,30.04,South,186,2.0,4.0,60,0.00,,SCT004,0.00,VWS V14.01,2013-02-04 20:47:00,
2013-02-04 12:52:00,64.3,50.1,30.04,SSE,159,0.0,4.0,60,0.00,,SCT004,0.00,VWS V14.01,2013-02-04 20:52:00,
2013-02-04 12:57:00,64.5,52.1,30.04,SE,141,2.0,4.0,64,0.00,,SCT004,0.00,VWS V14.01,2013-02-04 20:57:00,
2013-02-04 13:00:00,64.5,50.8,30.03,South,188,0.0,4.0,61,0.00,,CLR,0.00,VWS V14.01,2013-02-04 21:00:00,
2013-02-04 13:02:00,64.3,50.6,30.03,South,188,1.0,4.0,61,0.00,,CLR,0.00,VWS V14.01,2013-02-04 21:02:00,
2013-02-04 13:07:00,64.5,51.6,30.03,ENE,78,3.0,3.0,63,0.00,,CLR,0.00,VWS V14.01,2013-02-04 21:07:00,
2013-02-04 13:12:00,64.7,52.7,30.03,SSE,163,0.0,5.0,65,0.00,,CLR,0.00,VWS V14.01,2013-02-04 21:12:00,
2013-02-04 13:15:00,64.3,52.7,30.02,SSE,154,2.0,5.0,66,0.00,,CLR,0.00,VWS V14.01,2013-02-04 21:15:00,
2013-02-04 13:17:00,64.3,51.5,30.02,SE,133,2.0,5.0,63,0.00,,CLR,0.00,VWS V14.01,2013-02-04 21:17:00,
2013-02-04 13:22:00,64.2,51.4,30.02,South,175,3.0,4.0,63,0.00,,CLR,0.00,VWS V14.01,2013-02-04 21:22:00,
2013-02-04 13:27:00,64.0,50.7,30.02,SSE,168,2.0,4.0,62,0.00,,CLR,0.00,VWS V14.01,2013-02-04 21:27:00,
2013-02-04 13:30:00,63.4,51.0,30.02,South,176,0.0,6.0,64,0.00,,CLR,0.00,VWS V14.01,2013-02-04 21:30:00,
2013-02-04 13:32:00,63.4,51.0,30.02,South,176,1.0,6.0,64,0.00,,CLR,0.00,VWS V14.01,2013-02-04 21:32:00,
2013-02-04 13:37:00,63.5,52.4,30.02,South,181,0.0,4.0,67,0.00,,CLR,0.00,VWS V14.01,2013-02-04 21:37:00,
2013-02-04 13:42:00,63.9,50.2,30.02,SE,140,0.0,4.0,61,0.00,,CLR,0.00,VWS V14.01,2013-02-04 21:42:00,
2013-02-04 13:45:00,64.2,50.9,30.01,SE,129,0.0,4.0,62,0.00,,CLR,0.00,VWS V14.01,2013-02-04 21:45:00,
2013-02-04 13:47:00,64.0,50.7,30.01,SE,129,0.0,4.0,62,0.00,,CLR,0.00,VWS V14.01,2013-02-04 21:47:00,
2013-02-04 13:52:00,64.0,49.4,30.01,SSE,148,0.0,2.0,59,0.00,,CLR,0.00,VWS V14.01,2013-02-04 21:52:00,
2013-02-04 13:57:00,64.2,50.0,30.01,ESE,104,1.0,3.0,60,0.00,,CLR,0.00,VWS V14.01,2013-02-04 21:57:00,
2013-02-04 14:00:00,64.2,50.5,30.00,SSE,148,2.0,3.0,61,0.00,,CLR,0.00,VWS V14.01,2013-02-04 22:00:00,
2013-02-04 14:02:00,64.2,50.5,30.00,SE,124,1.0,3.0,61,0.00,,CLR,0.00,VWS V14.01,2013-02-04 22:02:00,
2013-02-04 14:07:00,64.5,49.9,30.00,SE,133,0.0,3.0,59,0.00,,CLR,0.00,VWS V14.01,2013-02-04 22:07:00,
2013-02-04 14:12:00,64.5,49.9,30.00,SE,134,2.0,3.0,59,0.00,,CLR,0.00,VWS V14.01,2013-02-04 22:12:00,
2013-02-04 14:15:00,64.3,50.6,30.00,East,93,4.0,4.0,61,0.00,,CLR,0.00,VWS V14.01,2013-02-04 22:15:00,
2013-02-04 14:17:00,64.3,50.6,30.00,SSE,152,1.0,3.0,61,0.00,,CLR,0.00,VWS V14.01,2013-02-04 22:17:00,
2013-02-04 14:22:00,64.3,50.1,30.00,SSE,148,0.0,4.0,60,0.00,,CLR,0.00,VWS V14.01,2013-02-04 22:22:00,
2013-02-04 14:27:00,64.2,48.7,30.00,SE,125,0.0,4.0,57,0.00,,CLR,0.00,VWS V14.01,2013-02-04 22:27:00,
2013-02-04 14:30:00,64.2,49.1,29.99,ESE,117,0.0,4.0,58,0.00,,CLR,0.00,VWS V14.01,2013-02-04 22:30:00,
2013-02-04 14:32:00,64.2,49.1,29.99,ESE,117,0.0,4.0,58,0.00,,CLR,0.00,VWS V14.01,2013-02-04 22:32:00,
2013-02-04 14:37:00,64.3,47.3,29.99,ESE,110,0.0,2.0,54,0.00,,CLR,0.00,VWS V14.01,2013-02-04 22:37:00,
2013-02-04 14:42:00,64.2,47.2,29.99,SSE,154,0.0,2.0,54,0.00,,CLR,0.00,VWS V14.01,2013-02-04 22:42:00,
2013-02-04 14:45:00,63.9,47.4,29.99,SSE,154,0.0,2.0,55,0.00,,CLR,0.00,VWS V14.01,2013-02-04 22:45:00,
2013-02-04 14:47:00,63.9,47.4,29.99,SSE,154,0.0,2.0,55,0.00,,CLR,0.00,VWS V14.01,2013-02-04 22:47:00,
2013-02-04 14:52:00,63.5,47.1,29.99,SE,129,0.0,3.0,55,0.00,,CLR,0.00,VWS V14.01,2013-02-04 22:52:00,
2013-02-04 14:57:00,63.4,48.4,29.99,ESE,112,2.0,3.0,58,0.00,,CLR,0.00,VWS V14.01,2013-02-04 22:57:00,
2013-02-04 15:00:00,63.2,46.8,29.99,SSE,152,1.0,3.0,55,0.00,,CLR,0.00,VWS V14.01,2013-02-04 23:00:00,
2013-02-04 15:02:00,63.2,46.8,29.99,ESE,117,2.0,3.0,55,0.00,,CLR,0.00,VWS V14.01,2013-02-04 23:02:00,
2013-02-04 15:07:00,63.2,47.7,29.99,SE,131,0.0,3.0,57,0.00,,CLR,0.00,VWS V14.01,2013-02-04 23:07:00,
2013-02-04 15:12:00,63.2,46.8,29.99,SE,145,3.0,4.0,55,0.00,,CLR,0.00,VWS V14.01,2013-02-04 23:12:00,
2013-02-04 15:15:00,63.2,47.7,29.99,ESE,110,0.0,4.0,57,0.00,,CLR,0.00,VWS V14.01,2013-02-04 23:15:00,
2013-02-04 15:17:00,63.2,47.7,29.99,ESE,110,0.0,4.0,57,0.00,,CLR,0.00,VWS V14.01,2013-02-04 23:17:00,
2013-02-04 15:22:00,63.4,48.4,29.99,East,91,0.0,3.0,58,0.00,,CLR,0.00,VWS V14.01,2013-02-04 23:22:00,
2013-02-04 15:27:00,63.5,47.5,29.99,East,92,1.0,3.0,56,0.00,,CLR,0.00,VWS V14.01,2013-02-04 23:27:00,
2013-02-04 15:30:00,63.9,47.4,29.99,SE,128,0.0,3.0,55,0.00,,CLR,0.00,VWS V14.01,2013-02-04 23:30:00,
2013-02-04 15:32:00,63.7,47.2,29.99,SE,128,1.0,3.0,55,0.00,,CLR,0.00,VWS V14.01,2013-02-04 23:32:00,
2013-02-04 15:37:00,63.9,47.9,29.99,ESE,123,2.0,2.0,56,0.00,,CLR,0.00,VWS V14.01,2013-02-04 23:37:00,
2013-02-04 15:42:00,64.0,47.0,29.99,ESE,123,0.0,2.0,54,0.00,,CLR,0.00,VWS V14.01,2013-02-04 23:42:00,
2013-02-04 15:45:00,64.0,48.0,29.99,ESE,123,1.0,2.0,56,0.00,,CLR,0.00,VWS V14.01,2013-02-04 23:45:00,
2013-02-04 15:47:00,64.0,48.0,29.99,ESE,123,0.0,2.0,56,0.00,,CLR,0.00,VWS V14.01,2013-02-04 23:47:00,
2013-02-04 15:52:00,63.9,47.4,29.99,ESE,118,1.0,2.0,55,0.00,,CLR,0.00,VWS V14.01,2013-02-04 23:52:00,
2013-02-04 15:57:00,63.7,48.2,29.99,ESE,118,0.0,2.0,57,0.00,,CLR,0.00,VWS V14.01,2013-02-04 23:57:00,
2013-02-04 16:00:00,63.1,48.1,29.99,ESE,118,0.0,2.0,58,0.00,,CLR,0.00,VWS V14.01,2013-02-05 00:00:00,
2013-02-04 16:02:00,63.1,48.1,29.99,ESE,118,0.0,2.0,58,0.00,,CLR,0.00,VWS V14.01,2013-02-05 00:02:00,
2013-02-04 16:07:00,62.6,48.5,29.99,ESE,118,1.0,1.0,60,0.00,,CLR,0.00,VWS V14.01,2013-02-05 00:07:00,
2013-02-04 16:12:00,62.1,48.9,29.99,ESE,118,2.0,2.0,62,0.00,,CLR,0.00,VWS V14.01,2013-02-05 00:12:00,
2013-02-04 16:15:00,61.8,48.7,30.00,ESE,118,0.0,2.0,62,0.00,,CLR,0.00,VWS V14.01,2013-02-05 00:15:00,
2013-02-04 16:17:00,61.8,48.7,30.00,ESE,118,0.0,2.0,62,0.00,,CLR,0.00,VWS V14.01,2013-02-05 00:17:00,
2013-02-04 16:22:00,61.3,49.0,30.00,ESE,118,0.0,2.0,64,0.00,,CLR,0.00,VWS V14.01,2013-02-05 00:22:00,
2013-02-04 16:27:00,61.2,49.3,30.00,ESE,118,2.0,2.0,65,0.00,,CLR,0.00,VWS V14.01,2013-02-05 00:27:00,
2013-02-04 16:30:00,61.0,49.6,30.00,ESE,118,2.0,2.0,66,0.00,,CLR,0.00,VWS V14.01,2013-02-05 00:30:00,
2013-02-04 16:32:00,61.0,49.6,30.00,ESE,118,1.0,2.0,66,0.00,,CLR,0.00,VWS V14.01,2013-02-05 00:32:00,
2013-02-04 16:37:00,60.7,49.3,30.00,ESE,118,0.0,2.0,66,0.00,,CLR,0.00,VWS V14.01,2013-02-05 00:37:00,
2013-02-04 16:42:00,60.4,49.4,30.00,ESE,118,1.0,2.0,67,0.00,,CLR,0.00,VWS V14.01,2013-02-05 00:42:00,
2013-02-04 16:45:00,59.9,49.7,30.00,ESE,118,1.0,2.0,69,0.00,,CLR,0.00,VWS V14.01,2013-02-05 00:45:00,
2013-02-04 16:47:00,59.9,49.7,30.00,ESE,118,1.0,2.0,69,0.00,,CLR,0.00,VWS V14.01,2013-02-05 00:47:00,
2013-02-04 16:52:00,59.5,49.7,30.00,ESE,118,1.0,3.0,70,0.00,,CLR,0.00,VWS V14.01,2013-02-05 00:52:00,
2013-02-04 16:57:00,59.0,50.0,30.00,ESE,118,1.0,3.0,72,0.00,,CLR,0.00,VWS V14.01,2013-02-05 00:57:00,
2013-02-04 17:00:00,58.6,50.0,30.00,ESE,118,1.0,3.0,73,0.00,,CLR,0.00,VWS V14.01,2013-02-05 01:00:00,
2013-02-04 17:02:00,58.6,50.0,30.00,ESE,118,0.0,3.0,73,0.00,,CLR,0.00,VWS V14.01,2013-02-05 01:02:00,
2013-02-04 17:07:00,58.3,50.1,30.00,ESE,116,3.0,3.0,74,0.00,,CLR,0.00,VWS V14.01,2013-02-05 01:07:00,
2013-02-04 17:12:00,57.8,49.9,30.00,ESE,116,0.0,3.0,75,0.00,,CLR,0.00,VWS V14.01,2013-02-05 01:12:00,
2013-02-04 17:15:00,57.3,49.8,30.00,ESE,116,0.0,3.0,76,0.00,,CLR,0.00,VWS V14.01,2013-02-05 01:15:00,
2013-02-04 17:17:00,57.3,49.8,30.00,ESE,116,0.0,3.0,76,0.00,,CLR,0.00,VWS V14.01,2013-02-05 01:17:00,
2013-02-04 17:22:00,56.9,49.4,30.00,ESE,116,0.0,0.0,76,0.00,,CLR,0.00,VWS V14.01,2013-02-05 01:22:00,
2013-02-04 17:27:00,56.6,49.5,30.00,ESE,116,1.0,2.0,77,0.00,,CLR,0.00,VWS V14.01,2013-02-05 01:27:00,
2013-02-04 17:30:00,56.2,49.4,30.00,ESE,114,0.0,2.0,78,0.00,,CLR,0.00,VWS V14.01,2013-02-05 01:30:00,
2013-02-04 17:32:00,56.2,49.4,30.00,ESE,114,0.0,2.0,78,0.00,,CLR,0.00,VWS V14.01,2013-02-05 01:32:00,
2013-02-04 17:37:00,55.7,49.0,30.00,ESE,114,2.0,2.0,78,0.00,,CLR,0.00,VWS V14.01,2013-02-05 01:37:00,
2013-02-04 17:42:00,55.3,48.2,30.00,ESE,114,0.0,2.0,77,0.00,,CLR,0.00,VWS V14.01,2013-02-05 01:42:00,
2013-02-04 17:45:00,54.7,47.3,30.01,ESE,114,0.0,2.0,76,0.00,,CLR,0.00,VWS V14.01,2013-02-05 01:45:00,
2013-02-04 17:47:00,54.7,47.3,30.01,ESE,114,0.0,2.0,76,0.00,,CLR,0.00,VWS V14.01,2013-02-05 01:47:00,
2013-02-04 17:52:00,54.4,45.6,30.01,ESE,114,2.0,2.0,72,0.00,,CLR,0.00,VWS V14.01,2013-02-05 01:52:00,
2013-02-04 17:57:00,54.1,44.5,30.01,ESE,114,0.0,2.0,70,0.00,,CLR,0.00,VWS V14.01,2013-02-05 01:57:00,
2013-02-04 18:00:00,54.1,44.5,30.01,ESE,114,2.0,2.0,70,0.00,,CLR,0.00,VWS V14.01,2013-02-05 02:00:00,
2013-02-04 18:02:00,54.1,44.5,30.01,ESE,114,2.0,2.0,70,0.00,,CLR,0.00,VWS V14.01,2013-02-05 02:02:00,
2013-02-04 18:07:00,54.1,44.2,30.01,ESE,114,1.0,2.0,69,0.00,,CLR,0.00,VWS V14.01,2013-02-05 02:07:00,
2013-02-04 18:12:00,54.4,44.1,30.01,ESE,114,0.0,2.0,68,0.00,,CLR,0.00,VWS V14.01,2013-02-05 02:12:00,
2013-02-04 18:15:00,54.5,43.8,30.01,ESE,114,0.0,2.0,67,0.00,,CLR,0.00,VWS V14.01,2013-02-05 02:15:00,
2013-02-04 18:17:00,54.5,43.8,30.01,ESE,114,0.0,2.0,67,0.00,,CLR,0.00,VWS V14.01,2013-02-05 02:17:00,
2013-02-04 18:22:00,54.5,44.2,30.01,ESE,114,2.0,2.0,68,0.00,,CLR,0.00,VWS V14.01,2013-02-05 02:22:00,
2013-02-04 18:27:00,54.4,45.6,30.01,ESE,114,1.0,3.0,72,0.00,,CLR,0.00,VWS V14.01,2013-02-05 02:27:00,
2013-02-04 18:30:00,54.1,45.3,30.01,ESE,114,3.0,3.0,72,0.00,,CLR,0.00,VWS V14.01,2013-02-05 02:30:00,
2013-02-04 18:32:00,54.1,45.3,30.01,ESE,114,3.0,3.0,72,0.00,,CLR,0.00,VWS V14.01,2013-02-05 02:32:00,
2013-02-04 18:37:00,53.8,45.7,30.01,ESE,114,3.0,3.0,74,0.00,,CLR,0.00,VWS V14.01,2013-02-05 02:37:00,
2013-02-04 18:42:00,53.5,45.4,30.01,WNW,284,3.0,4.0,74,0.00,,CLR,0.00,VWS V14.01,2013-02-05 02:42:00,
2013-02-04 18:45:00,53.2,44.8,30.01,WNW,283,4.0,4.0,73,0.00,,CLR,0.00,VWS V14.01,2013-02-05 02:45:00,
2013-02-04 18:47:00,53.2,44.8,30.01,WNW,283,4.0,4.0,73,0.00,,CLR,0.00,VWS V14.01,2013-02-05 02:47:00,
2013-02-04 18:52:00,52.9,43.8,30.01,WNW,283,1.0,4.0,71,0.00,,CLR,0.00,VWS V14.01,2013-02-05 02:52:00,
2013-02-04 18:57:00,52.6,43.1,30.01,WNW,283,3.0,4.0,70,0.00,,CLR,0.00,VWS V14.01,2013-02-05 02:57:00,
2013-02-04 19:00:00,52.3,43.2,30.01,WNW,283,2.0,4.0,71,0.00,,CLR,0.00,VWS V14.01,2013-02-05 03:00:00,
2013-02-04 19:02:00,52.3,43.2,30.01,WNW,283,2.0,4.0,71,0.00,,CLR,0.00,VWS V14.01,2013-02-05 03:02:00,
2013-02-04 19:07:00,52.0,43.3,30.01,WNW,283,2.0,3.0,72,0.00,,CLR,0.00,VWS V14.01,2013-02-05 03:07:00,
2013-02-04 19:12:00,51.7,42.6,30.01,WNW,283,2.0,3.0,71,0.00,,CLR,0.00,VWS V14.01,2013-02-05 03:12:00,
2013-02-04 19:15:00,51.6,42.5,30.01,WNW,283,2.0,3.0,71,0.00,,CLR,0.00,VWS V14.01,2013-02-05 03:15:00,
2013-02-04 19:17:00,51.6,42.5,30.01,WNW,283,2.0,3.0,71,0.00,,CLR,0.00,VWS V14.01,2013-02-05 03:17:00,
2013-02-04 19:22:00,51.6,42.5,30.01,WNW,283,3.0,3.0,71,0.00,,CLR,0.00,VWS V14.01,2013-02-05 03:22:00,
2013-02-04 19:27:00,51.6,44.0,30.01,West,259,2.0,3.0,75,0.00,,CLR,0.00,VWS V14.01,2013-02-05 03:27:00,
2013-02-04 19:30:00,51.3,44.3,30.01,WSW,254,2.0,4.0,77,0.00,,CLR,0.00,VWS V14.01,2013-02-05 03:30:00,
2013-02-04 19:32:00,51.3,44.3,30.01,WSW,254,2.0,2.0,77,0.00,,CLR,0.00,VWS V14.01,2013-02-05 03:32:00,
2013-02-04 19:37:00,51.1,44.5,30.01,WSW,254,2.0,2.0,78,0.00,,CLR,0.00,VWS V14.01,2013-02-05 03:37:00,
2013-02-04 19:42:00,50.8,44.5,30.01,WSW,254,2.0,3.0,79,0.00,,CLR,0.00,VWS V14.01,2013-02-05 03:42:00,
2013-02-04 19:45:00,50.4,44.1,30.02,WSW,254,1.0,3.0,79,0.00,,CLR,0.00,VWS V14.01,2013-02-05 03:45:00,
2013-02-04 19:47:00,50.4,44.1,30.02,WSW,254,1.0,3.0,79,0.00,,CLR,0.00,VWS V14.01,2013-02-05 03:47:00,
2013-02-04 19:52:00,50.1,44.2,30.02,WSW,254,0.0,2.0,80,0.00,,CLR,0.00,VWS V14.01,2013-02-05 03:52:00,
2013-02-04 19:57:00,49.8,44.8,30.02,WSW,254,0.0,2.0,83,0.00,,CLR,0.00,VWS V14.01,2013-02-05 03:57:00,
2013-02-04 20:00:00,49.6,44.7,30.02,WSW,254,0.0,2.0,83,0.00,,CLR,0.00,VWS V14.01,2013-02-05 04:00:00,
2013-02-04 20:02:00,49.5,44.6,30.02,WSW,254,0.0,0.0,83,0.00,,CLR,0.00,VWS V14.01,2013-02-05 04:02:00,
2013-02-04 20:07:00,49.4,44.8,30.02,WSW,254,0.0,0.0,84,0.00,,CLR,0.00,VWS V14.01,2013-02-05 04:07:00,
2013-02-04 20:12:00,49.4,45.7,30.02,WSW,254,0.0,0.0,87,0.00,,CLR,0.00,VWS V14.01,2013-02-05 04:12:00,
2013-02-04 20:15:00,49.4,46.0,30.02,WSW,254,1.0,2.0,88,0.00,,CLR,0.00,VWS V14.01,2013-02-05 04:15:00,
2013-02-04 20:17:00,49.4,46.0,30.02,WSW,254,1.0,2.0,88,0.00,,CLR,0.00,VWS V14.01,2013-02-05 04:17:00,
2013-02-04 20:22:00,49.4,46.3,30.02,WSW,254,2.0,2.0,89,0.00,,CLR,0.00,VWS V14.01,2013-02-05 04:22:00,
2013-02-04 20:27:00,49.2,46.1,30.02,WSW,254,2.0,3.0,89,0.00,,CLR,0.00,VWS V14.01,2013-02-05 04:27:00,
2013-02-04 20:30:00,48.9,45.8,30.02,WSW,254,2.0,3.0,89,0.00,,CLR,0.00,VWS V14.01,2013-02-05 04:30:00,
2013-02-04 20:32:00,48.9,45.8,30.02,WSW,254,2.0,3.0,89,0.00,,CLR,0.00,VWS V14.01,2013-02-05 04:32:00,
2013-02-04 20:37:00,48.8,45.7,30.02,WSW,254,2.0,3.0,89,0.00,,CLR,0.00,VWS V14.01,2013-02-05 04:37:00,
2013-02-04 20:42:00,48.6,45.2,30.02,WSW,247,2.0,3.0,88,0.00,,CLR,0.00,VWS V14.01,2013-02-05 04:42:00,
2013-02-04 20:45:00,48.5,45.1,30.02,WSW,247,1.0,3.0,88,0.00,,CLR,0.00,VWS V14.01,2013-02-05 04:45:00,
2013-02-04 20:47:00,48.5,45.1,30.02,WSW,247,1.0,1.0,88,0.00,,CLR,0.00,VWS V14.01,2013-02-05 04:47:00,
2013-02-04 20:52:00,48.5,44.8,30.02,WSW,247,2.0,2.0,87,0.00,,CLR,0.00,VWS V14.01,2013-02-05 04:52:00,
2013-02-04 20:57:00,48.5,44.8,30.02,WSW,247,1.0,2.0,87,0.00,,CLR,0.00,VWS V14.01,2013-02-05 04:57:00,
2013-02-04 21:00:00,48.5,44.8,30.02,WSW,247,0.0,2.0,87,0.00,,CLR,0.00,VWS V14.01,2013-02-05 05:00:00,
2013-02-04 21:05:00,48.5,44.8,30.03,WSW,247,0.0,0.0,87,0.00,,CLR,0.00,VWS V14.01,2013-02-05 05:05:00,
2013-02-04 21:10:00,48.5,44.8,30.03,WSW,247,2.0,2.0,87,0.00,,CLR,0.00,VWS V14.01,2013-02-05 05:10:00,
2013-02-04 21:15:00,48.5,44.8,30.03,WSW,247,2.0,2.0,87,0.00,,CLR,0.00,VWS V14.01,2013-02-05 05:15:00,
2013-02-04 21:20:00,48.5,45.1,30.02,WSW,247,0.0,0.0,88,0.00,,CLR,0.00,VWS V14.01,2013-02-05 05:20:00,
2013-02-04 21:25:00,48.5,45.1,30.02,WSW,247,0.0,1.0,88,0.00,,CLR,0.00,VWS V14.01,2013-02-05 05:25:00,
2013-02-04 21:30:00,48.3,45.2,30.02,WSW,247,0.0,1.0,89,0.00,,CLR,0.00,VWS V14.01,2013-02-05 05:30:00,
2013-02-04 21:35:00,48.3,45.2,30.03,WSW,247,2.0,3.0,89,0.00,,CLR,0.00,VWS V14.01,2013-02-05 05:35:00,
2013-02-04 21:40:00,48.2,45.4,30.03,WSW,247,3.0,3.0,90,0.00,,CLR,0.00,VWS V14.01,2013-02-05 05:40:00,
2013-02-04 21:45:00,48.2,45.7,30.03,WSW,247,2.0,3.0,91,0.00,,CLR,0.00,VWS V14.01,2013-02-05 05:45:00,
2013-02-04 21:50:00,48.3,45.8,30.02,WSW,247,2.0,2.0,91,0.00,,CLR,0.00,VWS V14.01,2013-02-05 05:50:00,
2013-02-04 21:55:00,48.3,46.1,30.02,WSW,247,0.0,2.0,92,0.00,,CLR,0.00,VWS V14.01,2013-02-05 05:55:00,
2013-02-04 22:00:00,48.2,46.3,30.02,WSW,247,0.0,2.0,93,0.00,,CLR,0.00,VWS V14.01,2013-02-05 06:00:00,
2013-02-04 22:05:00,48.0,46.1,30.03,WSW,247,1.0,2.0,93,0.00,,SCT004,0.00,VWS V14.01,2013-02-05 06:05:00,
2013-02-04 22:10:00,47.9,46.0,30.03,WSW,247,2.0,3.0,93,0.00,,SCT004,0.00,VWS V14.01,2013-02-05 06:10:00,
2013-02-04 22:15:00,47.9,46.3,30.03,WSW,247,2.0,3.0,94,0.00,,SCT004,0.00,VWS V14.01,2013-02-05 06:15:00,
2013-02-04 22:20:00,48.0,46.6,30.02,WSW,247,2.0,2.0,95,0.00,,SCT004,0.00,VWS V14.01,2013-02-05 06:20:00,
2013-02-04 22:25:00,48.0,46.6,30.02,WSW,247,1.0,3.0,95,0.00,,SCT004,0.00,VWS V14.01,2013-02-05 06:25:00,
2013-02-04 22:30:00,47.9,46.5,30.02,WSW,247,0.0,3.0,95,0.00,,SCT004,0.00,VWS V14.01,2013-02-05 06:30:00,
2013-02-04 22:35:00,47.7,46.3,30.01,WSW,247,0.0,0.0,95,0.00,,SCT004,0.00,VWS V14.01,2013-02-05 06:35:00,
2013-02-04 22:40:00,47.7,46.3,30.01,WSW,247,0.0,0.0,95,0.00,,SCT004,0.00,VWS V14.01,2013-02-05 06:40:00,
2013-02-04 22:45:00,47.6,46.5,30.01,WSW,247,3.0,3.0,96,0.00,,SCT004,0.00,VWS V14.01,2013-02-05 06:45:00,
2013-02-04 22:50:00,47.4,47.4,30.02,WSW,247,2.0,3.0,100,0.00,,SCT004,0.00,VWS V14.01,2013-02-05 06:50:00,
2013-02-04 22:55:00,47.4,46.3,30.02,WSW,247,1.0,3.0,96,0.00,,SCT004,0.00,VWS V14.01,2013-02-05 06:55:00,
2013-02-04 23:00:00,47.4,46.3,30.02,WSW,247,2.0,3.0,96,0.00,,SCT004,0.00,VWS V14.01,2013-02-05 07:00:00,
2013-02-04 23:05:00,47.4,46.6,30.02,West,260,3.0,3.0,97,0.00,,SCT004,0.00,VWS V14.01,2013-02-05 07:05:00,
2013-02-04 23:10:00,47.4,46.6,30.02,West,260,1.0,3.0,97,0.00,,SCT004,0.00,VWS V14.01,2013-02-05 07:10:00,
2013-02-04 23:15:00,47.4,46.6,30.02,West,260,2.0,3.0,97,0.00,,SCT004,0.00,VWS V14.01,2013-02-05 07:15:00,
2013-02-04 23:20:00,47.3,46.2,30.02,West,260,2.0,3.0,96,0.00,,SCT004,0.00,VWS V14.01,2013-02-05 07:20:00,
2013-02-04 23:25:00,47.1,46.0,30.02,West,260,2.0,3.0,96,0.00,,SCT004,0.00,VWS V14.01,2013-02-05 07:25:00,
2013-02-04 23:30:00,47.1,46.0,30.02,West,260,3.0,3.0,96,0.00,,SCT004,0.00,VWS V14.01,2013-02-05 07:30:00,
2013-02-04 23:35:00,47.1,46.0,30.02,West,260,2.0,3.0,96,0.00,,SCT004,0.00,VWS V14.01,2013-02-05 07:35:00,
2013-02-04 23:40:00,47.1,46.0,30.02,West,270,3.0,3.0,96,0.00,,SCT004,0.00,VWS V14.01,2013-02-05 07:40:00,
2013-02-04 23:45:00,47.3,46.2,30.02,West,270,2.0,3.0,96,0.00,,,0.00,VWS V14.01,2013-02-05 07:45:00,
2013-02-04 23:50:00,47.3,46.2,30.02,West,270,2.0,3.0,96,0.00,,,0.00,VWS V14.01,2013-02-05 07:50:00,
2013-02-04 23:55:00,47.3,46.2,30.02,West,270,1.0,3.0,96,0.00,,,0.00,VWS V14.01,2013-02-05 07:55:00,